PROBA-1 1 26958U 01049B 26073.93626367 .00004202 00000+0 27441-3 0 9992 2 26958 97.9641 79.1930 0057222 81.7849 278.9862 15.07066807329424 CUTE-1 (CO-55) 1 27844U 03031E 26073.90291045 .00000398 00000+0 19111-3 0 9995 2 27844 98.6776 83.6370 0010761 99.0298 261.2099 14.24271034178259 CUBESAT XI-IV (CO-57) 1 27848U 03031J 26073.56320221 .00000349 00000+0 17224-3 0 9999 2 27848 98.6807 83.0901 0010521 116.0304 244.1959 14.23565240177915 APRIZESAT 4 1 35684U 09041D 26073.78022950 .00000987 00000+0 12466-3 0 9996 2 35684 98.1477 147.2074 0042070 267.6667 91.9729 14.83720177897362 APRIZESAT 3 1 35686U 09041F 26073.92859598 .00001833 00000+0 16338-3 0 9993 2 35686 98.1899 222.7300 0062316 19.2064 341.1484 14.95920075902288 PROBA-2 1 36037U 09059B 26073.74101027 .00000348 00000+0 91586-4 0 9999 2 36037 98.2435 258.4038 0012614 207.7325 152.3200 14.54795490867790 APRIZESAT 5 1 37792U 11044E 26073.68813501 .00001607 00000+0 21099-3 0 9995 2 37792 98.2404 4.0947 0051369 308.1061 51.5524 14.80875754784802 APRIZESAT 6 1 37793U 11044F 26073.97044073 .00001085 00000+0 16033-3 0 9990 2 37793 98.2414 342.5328 0043965 28.9537 30.8426 14.76765434783241 PROBA-V 1 39159U 13021A 26073.93690966 .00000107 00000+0 64779-4 0 9994 2 39159 98.3513 57.2344 0005165 57.7569 302.4110 14.23575279667701 APRIZESAT 7 1 39416U 13066A 26073.82466444 .00001938 00000+0 19787-3 0 9990 2 39416 97.7603 28.4756 0036405 161.8614 198.3912 14.91302923667167 APRIZESAT 8 1 39425U 13066K 26073.83448088 .00001382 00000+0 15614-3 0 9993 2 39425 97.8124 22.6885 0044785 235.4668 124.2317 14.87440781665640 BUGSAT-1 (TITA) 1 40014U 14033E 26073.92384196 .00007081 00000+0 38368-3 0 9996 2 40014 98.0422 161.0456 0029500 141.0616 219.2747 15.14573493641560 SAUDISAT 4 1 40016U 14033G 26073.90610420 .00000876 00000+0 12232-3 0 9995 2 40016 97.7422 223.3838 0045352 21.9709 338.3434 14.79400826632134 APRIZESAT 9 1 40018U 14033J 26073.92727761 .00001098 00000+0 16845-3 0 9997 2 40018 97.8889 209.5192 0067161 142.5204 218.0716 14.74087287629674 APRIZESAT 10 1 40019U 14033K 26073.90561313 .00000949 00000+0 15665-3 0 9998 2 40019 97.9486 203.0575 0078259 214.0595 145.5576 14.70763296628394 TECHDEMOSAT-1 (TDS-1) 1 40076U 14037H 26073.88693862 .00012453 00000+0 73482-3 0 9991 2 40076 98.3779 56.8966 0005195 213.2496 146.8406 15.11698818633974 TECHNOSAT 1 42829U 17042E 26073.88265156 .00004048 00000+0 29349-3 0 9993 2 42829 97.4142 235.2299 0018998 58.6512 301.6571 15.04329131472520 FLYING LAPTOP 1 42831U 17042G 26073.97944102 .00005552 00000+0 44257-3 0 9997 2 42831 97.4278 233.4185 0019674 78.8155 281.5280 15.00560420472321 HAWK-A 1 43765U 18099H 26073.93148638 .00009299 00000+0 38825-3 0 9999 2 43765 97.4047 127.4273 0034261 256.2149 103.5274 15.23324699398746 HAWK-B 1 43794U 18099AN 26073.71199851 .00008902 00000+0 39211-3 0 9990 2 43794 97.4096 126.8160 0031225 275.0102 84.7570 15.21616195398668 HAWK-C 1 43799U 18099AT 26073.72021428 .00011498 00000+0 43263-3 0 9996 2 43799 97.4024 127.6847 0040374 258.9100 100.7597 15.26512917399490 SALSAT 1 46495U 20068K 26073.91115547 .00011282 00000+0 41164-3 0 9997 2 46495 97.8858 71.3452 0008046 274.1510 85.8809 15.28301739300959 HAWK-2C 1 47502U 21006CT 26073.70097348 .00009331 00000+0 29142-3 0 9999 2 47502 97.2414 119.9197 0007504 167.2387 192.9047 15.33371042285011 HAWK-2A 1 47505U 21006CW 26073.70442373 .00009175 00000+0 28648-3 0 9990 2 47505 97.2455 120.5449 0007027 169.7585 190.3803 15.33389381285011 HAWK-2B 1 47508U 21006CZ 26073.70126242 .00010228 00000+0 31897-3 0 9998 2 47508 97.2330 119.0318 0007695 168.1136 192.0290 15.33389702285016 HAWK-3B 1 48931U 21059BE 26073.48347700 .00046305 00000+0 53016-3 0 9998 2 48931 97.6721 261.7642 0004926 318.8898 41.1987 15.61990894263039 HAWK-3C 1 48948U 21059BX 26073.93165331 .00048524 00000+0 55422-3 0 9992 2 48948 97.6868 267.7603 0005350 318.5997 41.4854 15.62041270263101 HAWK-3A 1 48957U 21059CG 26073.48306405 .00045086 00000+0 51632-3 0 9990 2 48957 97.6804 264.5573 0005044 318.4706 41.6167 15.61990239263037 HAWK-5C 1 52754U 22057Y 26073.89668569 .00025858 00000+0 49892-3 0 9996 2 52754 97.6452 227.8229 0005352 59.1797 300.9978 15.47799370211746 HAWK-5B 1 52756U 22057AA 26073.89655616 .00025691 00000+0 49577-3 0 9992 2 52756 97.6459 226.1632 0005145 53.5702 306.6021 15.47797943211745 HAWK-5A 1 52757U 22057AB 26073.89628072 .00026508 00000+0 51134-3 0 9999 2 52757 97.6457 226.9972 0005621 55.8702 304.3080 15.47799873211747 HAWK-6B 1 55324U 23011A 26073.66012707 .00008154 00000+0 35791-3 0 9998 2 55324 40.5092 183.0377 0001546 82.5819 277.5166 15.21983523173430 HAWK-6C 1 55326U 23011C 26073.65954497 .00008563 00000+0 37535-3 0 9992 2 55326 40.4879 179.8999 0001814 57.6577 302.4407 15.21986289173448 HAWK-6A 1 55327U 23011D 26073.59393055 .00007787 00000+0 34218-3 0 9995 2 55327 40.4978 181.8937 0001498 51.2057 308.8886 15.21981437173435 HAWK-7A 1 56191U 23054P 26073.67185412 .00008636 00000+0 33557-3 0 9996 2 56191 97.2830 323.4142 0003938 38.4669 321.6850 15.26286396162609 HAWK-7B 1 56193U 23054R 26073.67178258 .00008820 00000+0 34269-3 0 9994 2 56193 97.2862 321.6422 0003431 52.0557 308.0992 15.26286156162603 HAWK-7C 1 56200U 23054Y 26073.67166351 .00008710 00000+0 33845-3 0 9991 2 56200 97.2835 322.4415 0003296 42.3039 317.8454 15.26285831162609